This is the latest recevied weather packets stored in our database for station/object KF0EZB. If no packets are shown the sender has not sent any weather packets the latest 1 day(s).
| Time | Temp. | Humidity | Pressure | Rain* | Wind** | Luminosity | Snow |
|---|---|---|---|---|---|---|---|
| 1777992761 | 10° C | 59% | 1012.6 hPa | 0 mm | 1.79 m/s, 109° | 120 W/m² | - |
| 1777992458 | 10° C | 59% | 1012.6 hPa | 0 mm | 1.34 m/s, 102° | 95 W/m² | - |
| 1777992156 | 10° C | 59% | 1012.6 hPa | 0 mm | 1.34 m/s, 64° | 54 W/m² | - |
| 1777991852 | 10° C | 60% | 1012.7 hPa | 0 mm | 3.13 m/s, 50° | 49 W/m² | - |
| 1777991550 | 10° C | 60% | 1012.5 hPa | 0 mm | 0.45 m/s, 51° | 33 W/m² | - |
| 1777991255 | 10° C | 59% | 1012.5 hPa | 0 mm | 1.34 m/s, 66° | 38 W/m² | - |
| 1777990944 | 10° C | 58% | 1012.2 hPa | 0 mm | 2.24 m/s, 103° | 41 W/m² | - |
| 1777990642 | 10° C | 58% | 1012.4 hPa | 0 mm | 0 m/s | 30 W/m² | - |
| 1777990339 | 10° C | 57% | 1012.3 hPa | 0 mm | 3.13 m/s, 60° | 34 W/m² | - |
| 1777990035 | 10° C | 57% | 1012.5 hPa | 0 mm | 0.89 m/s, 48° | 42 W/m² | - |
| 1777989732 | 10° C | 57% | 1012.4 hPa | 0 mm | 0.89 m/s, 78° | 37 W/m² | - |
| 1777989428 | 10° C | 57% | 1012 hPa | 0 mm | 2.24 m/s, 122° | 33 W/m² | - |
| 1777989125 | 10° C | 57% | 1011.9 hPa | 0 mm | 1.34 m/s, 74° | 39 W/m² | - |
| 1777988820 | 10° C | 57% | 1011.9 hPa | 0 mm | 3.13 m/s, 31° | 42 W/m² | - |
| 1777988518 | 10° C | 57% | 1011.9 hPa | 0 mm | 2.68 m/s, 64° | 53 W/m² | - |
| 1777988215 | 10° C | 57% | 1011.4 hPa | 0 mm | 1.34 m/s, 117° | 31 W/m² | - |
| 1777987911 | 10° C | 58% | 1011.4 hPa | 0 mm | 1.79 m/s, 78° | 28 W/m² | - |
| 1777987607 | 10° C | 58% | 1011.3 hPa | 0 mm | 2.68 m/s, 62° | 38 W/m² | - |
| 1777987305 | 10° C | 58% | 1010.8 hPa | 0 mm | 4.47 m/s, 90° | 33 W/m² | - |
| 1777987002 | 10° C | 58% | 1011.1 hPa | 0 mm | 2.24 m/s, 91° | 30 W/m² | - |
| 1777986699 | 10° C | 58% | 1010.7 hPa | 0 mm | 2.68 m/s, 59° | 41 W/m² | - |
| 1777986397 | 10° C | 58% | 1010.8 hPa | 0 mm | 1.79 m/s, 52° | 28 W/m² | - |
| 1777986096 | 10° C | 58% | 1010.5 hPa | 0 mm | 4.92 m/s, 99° | 29 W/m² | - |
| 1777985791 | 10° C | 58% | 1010.5 hPa | 0 mm | 1.34 m/s, 42° | 32 W/m² | - |
| 1777985488 | 10° C | 58% | 1010.6 hPa | 0 mm | 2.24 m/s, 85° | 30 W/m² | - |
* Rain latest hour (hover to see other rain measurements)
** Current wind speed in m/s (hover to see current wind gust speed)